Location: Recife
(8.0585°S, 34.8848°W)
Time: 10:43:15
(UTC-03:00)

Explorer 11/Cluster Stage 4 - Pass Details

Date: 23 April 2026
Orbit: 463 x 1174 km, 28.8° (Epoch: 20 May)

Event Time Altitude Azimuth Distance (km) Brightness Sun altitude
Rises 12:45:51 0° 342° (NNW) 3,930 10.5 59.9°
Reaches altitude 10° 12:52:54 10° 26° (NNE) 3,067 9.9 58.6°
Maximum altitude 12:53:11 10° 28° (NNE) 3,067 9.8 58.5°
Drops below altitude 10° 12:53:29 10° 30° (NNE) 3,070 9.8 58.5°
Sets 13:00:36 0° 74° (ENE) 4,007 10.0 57.1°
